GW2711 Weather Reports


time (UTC)temp
F
wind
direction
speed
knots
gust
knots
rain 1hr
in
rain 24hr
in
rain mn
in
humidity
%
barometer
mb
20260906213100 83 110 16.5 21.7 0.00 0.00 0.00 39 1020.4
20260906212533 84 109 12.2 18.2 0.00 0.00 0.00 38 1020.5
20260906212034 84 111 13.0 20.0 0.00 0.00 0.00 39 1020.5
20260906211602 84 106 13.0 20.0 0.00 0.00 0.00 38 1020.6
20260906211033 85 135 13.0 20.0 0.00 0.00 0.00 39 1020.6
20260906210536 85 107 12.2 20.0 0.00 0.00 0.00 38 1020.7
20260906210107 85 115 13.9 20.0 0.00 0.00 0.00 38 1020.7
20260906205535 84 115 13.0 20.0 0.00 0.00 0.00 38 1020.8
20260906205033 84 97 9.6 19.1 0.00 0.00 0.00 39 1020.8
20260906204603 84 121 12.2 17.4 0.00 0.00 0.00 37 1021.0
20260906204036 84 111 12.2 20.9 0.00 0.00 0.00 38 1021.0
20260906203535 84 84 12.2 20.9 0.00 0.00 0.00 38 1021.2
20260906203102 84 92 11.3 20.0 0.00 0.00 0.00 37 1021.0
20260906202531 84 90 7.8 23.5 0.00 0.00 0.00 37 1021.2
20260906202033 85 101 15.6 23.5 0.00 0.00 0.00 36 1021.3
20260906201610 84 97 8.7 16.5 0.00 0.00 0.00 36 1021.2
20260906201034 83 110 10.4 16.5 0.00 0.00 0.00 34 1021.4
20260906200533 83 80 7.8 18.2 0.00 0.00 0.00 35 1021.4
20260906200057 83 109 13.0 21.7 0.00 0.00 0.00 37 1021.6
20260906195533 83 88 13.9 21.7 0.00 0.00 0.00 38 1021.7
20260906195035 82 84 10.4 20.0 0.00 0.00 0.00 38 1021.7
20260906194604 83 111 12.2 20.0 0.00 0.00 0.00 38 1021.7
20260906194032 83 126 12.2 20.0 0.00 0.00 0.00 38 1021.7
20260906193534 83 115 9.6 17.4 0.00 0.00 0.00 38 1021.8
20260906193104 83 140 12.2 17.4 0.00 0.00 0.00 37 1021.9
20260906192532 83 79 11.3 17.4 0.00 0.00 0.00 37 1021.8
20260906192032 83 136 13.0 17.4 0.00 0.00 0.00 36 1021.9
20260906191613 83 125 11.3 14.8 0.00 0.00 0.00 36 1021.9
20260906191033 83 105 6.1 13.0 0.00 0.00 0.00 35 1022.0
20260906190533 82 103 9.6 13.9 0.00 0.00 0.00 36 1022.1
20260906190054 82 113 8.7 13.9 0.00 0.00 0.00 37 1022.1
20260906185533 82 69 7.8 15.6 0.00 0.00 0.00 38 1022.3
20260906185033 82 93 6.1 15.6 0.00 0.00 0.00 38 1022.3
20260906184605 82 74 9.6 14.8 0.00 0.00 0.00 39 1022.5
20260906184033 81 80 9.6 13.9 0.00 0.00 0.00 39 1022.6
20260906183533 82 84 6.1 12.2 0.00 0.00 0.00 38 1022.6
20260906183108 82 92 6.1 12.2 0.00 0.00 0.00 37 1022.8
20260906182536 82 104 5.2 12.2 0.00 0.00 0.00 39 1022.9
20260906182033 81 84 6.1 11.3 0.00 0.00 0.00 38 1023.0
20260906181606 82 143 4.3 8.7 0.00 0.00 0.00 38 1023.1
20260906181034 81 53 5.2 8.7 0.00 0.00 0.00 39 1023.2
20260906180533 81 88 3.5 10.4 0.00 0.00 0.00 38 1023.3
20260906180106 81 115 4.3 10.4 0.00 0.00 0.00 37 1023.4
20260906175533 81 91 6.1 10.4 0.00 0.00 0.00 37 1023.5
20260906175032 81 69 4.3 8.7 0.00 0.00 0.00 38 1023.6
20260906174603 80 199 1.7 7.8 0.00 0.00 0.00 38 1023.7
20260906174033 80 130 2.6 7.8 0.00 0.00 0.00 38 1023.8
20260906173532 80 118 4.3 9.6 0.00 0.00 0.00 38 1023.8
20260906173100 80 111 4.3 9.6 0.00 0.00 0.00 38 1023.8
20260906172535 81 109 3.5 6.1 0.00 0.00 0.00 38 1023.8
20260906172033 80 77 2.6 8.7 0.00 0.00 0.00 39 1023.9
20260906171604 79 69 2.6 8.7 0.00 0.00 0.00 39 1024.0
20260906171033 79 79 3.5 11.3 0.00 0.00 0.00 40 1024.0
20260906170535 79 117 7.0 11.3 0.00 0.00 0.00 39 1024.0
20260906170108 80 133 2.6 6.1 0.00 0.00 0.00 39 1024.0
20260906165534 80 317 2.6 7.8 0.00 0.00 0.00 39 1024.0
20260906165033 80 317 4.3 7.8 0.00 0.00 0.00 39 1024.0
20260906164603 79 0 0.9 4.3 0.00 0.00 0.00 39 1024.2
20260906164033 79 17 2.6 3.5 0.00 0.00 0.00 40 1024.3
20260906163532 79 360 1.7 3.5 0.00 0.00 0.00 41 1024.2
20260906163113 78 254 0.0 3.5 0.00 0.00 0.00 42 1024.3
20260906162537 78 113 0.9 7.8 0.00 0.00 0.00 41 1024.4
20260906162033 78 264 0.9 7.8 0.00 0.00 0.00 42 1024.3
20260906161557 77 360 4.3 7.8 0.00 0.00 0.00 42 1024.3
20260906161034 77 30 1.7 7.0 0.00 0.00 0.00 43 1024.4
20260906160533 76 309 3.5 7.0 0.00 0.00 0.00 44 1024.3
20260906160057 76 289 0.9 4.3 0.00 0.00 0.00 45 1024.3
20260906155531 75 42 2.6 6.1 0.00 0.00 0.00 46 1024.3
20260906155036 75 10 0.9 6.1 0.00 0.00 0.00 46 1024.2
20260906154601 75 318 2.6 5.2 0.00 0.00 0.00 47 1024.1
20260906154033 75 16 3.5 5.2 0.00 0.00 0.00 46 1024.2
20260906153533 74 360 2.6 7.0 0.00 0.00 0.00 47 1024.3
20260906153057 74 10 1.7 7.0 0.00 0.00 0.00 50 1024.3
20260906152534 73 11 2.6 4.3 0.00 0.00 0.00 49 1024.3
20260906152034 73 360 2.6 6.1 0.00 0.00 0.00 49 1024.3
20260906151558 72 5 1.7 6.1 0.00 0.00 0.00 50 1024.3
20260906151033 71 286 4.3 6.1 0.00 0.00 0.00 51 1024.2
20260906150533 70 190 1.7 5.2 0.00 0.00 0.00 52 1024.3
20260906150108 70 254 3.5 5.2 0.00 0.00 0.00 52 1024.2
20260906145533 70 261 1.7 6.1 0.00 0.00 0.00 53 1024.2
20260906145033 69 269 3.5 7.8 0.00 0.00 0.00 52 1024.2
20260906144601 69 275 4.3 7.8 0.00 0.00 0.00 52 1024.1
20260906144033 69 298 6.1 9.6 0.00 0.00 0.00 54 1024.2
20260906143533 68 264 7.0 9.6 0.00 0.00 0.00 54 1024.1
20260906143058 68 274 7.0 8.7 0.00 0.00 0.00 54 1024.0
20260906142536 67 285 4.3 7.8 0.00 0.00 0.00 55 1024.1
20260906142036 67 250 5.2 7.8 0.00 0.00 0.00 54 1024.0
20260906141558 67 246 6.1 7.8 0.00 0.00 0.00 55 1024.0
20260906141034 66 242 6.1 7.8 0.00 0.00 0.00 56 1023.9
20260906140532 65 253 4.3 6.1 0.00 0.00 0.00 57 1024.0
20260906140104 65 252 3.5 4.3 0.00 0.00 0.00 58 1024.0
20260906135533 64 241 3.5 4.3 0.00 0.00 0.00 59 1024.0
20260906135033 63 248 2.6 4.3 0.00 0.00 0.00 60 1023.9
20260906134559 63 236 3.5 5.2 0.00 0.00 0.00 60 1023.8
20260906134035 62 215 3.5 6.1 0.00 0.00 0.00 61 1023.8
20260906133535 62 221 4.3 6.1 0.00 0.00 0.00 61 1023.7
20260906133114 62 221 4.3 6.1 0.00 0.00 0.00 61 1023.6
20260906132536 61 229 4.3 6.1 0.00 0.00 0.00 62 1023.6
20260906132034 60 242 3.5 4.3 0.00 0.00 0.00 63 1023.6
20260906131557 59 241 2.6 3.5 0.00 0.00 0.00 65 1023.6
20260906131033 58 238 1.7 2.6 0.00 0.00 0.00 67 1023.5
20260906130533 57 177 1.7 2.6 0.00 0.00 0.00 69 1023.7
20260906130109 57 255 1.7 5.2 0.00 0.00 0.00 70 1023.5
20260906125533 56 256 2.6 7.0 0.00 0.00 0.00 71 1023.5
20260906125031 56 258 5.2 7.0 0.00 0.00 0.00 71 1023.4
20260906124557 56 255 5.2 6.1 0.00 0.00 0.00 71 1023.4
20260906124035 56 240 4.3 6.1 0.00 0.00 0.00 70 1023.4
20260906123532 57 245 3.5 6.1 0.00 0.00 0.00 67 1023.6
20260906123103 57 230 5.2 6.1 0.00 0.00 0.00 67 1023.5
20260906122534 57 223 3.5 4.3 0.00 0.00 0.00 67 1023.4
20260906122034 57 228 3.5 3.5 0.00 0.00 0.00 67 1023.5
20260906121602 58 221 1.7 4.3 0.00 0.00 0.00 66 1023.5
20260906121030 58 230 2.6 4.3 0.00 0.00 0.00 66 1023.5
20260906120534 58 232 2.6 4.3 0.00 0.00 0.00 67 1023.4
20260906115533 57 244 4.3 6.1 0.00 0.00 0.00 67 1023.2
20260906115033 58 249 4.3 6.1 0.00 0.00 0.00 67 1023.2
20260906114554 58 261 2.6 3.5 0.00 0.00 0.00 65 1023.0
20260906114033 59 261 2.6 5.2 0.00 0.00 0.00 65 1023.0
20260906113531 59 261 2.6 5.2 0.00 0.00 0.00 64 1023.1
20260906113052 60 268 4.3 6.1 0.00 0.00 0.00 63 1023.1
20260906112533 60 262 5.2 7.0 0.00 0.00 0.00 62 1023.0
20260906112033 59 263 6.1 7.0 0.00 0.00 0.00 63 1022.9
20260906111618 59 260 6.1 7.0 0.00 0.00 0.00 65 1022.9
20260906111032 59 238 5.2 7.0 0.00 0.00 0.00 65 1022.9
20260906110533 59 243 4.3 5.2 0.00 0.00 0.00 64 1022.9
20260906110100 59 236 3.5 5.2 0.00 0.00 0.00 64 1022.8
20260906105533 60 236 4.3 6.1 0.00 0.00 0.00 64 1022.8
20260906105034 60 237 4.3 6.1 0.00 0.00 0.00 64 1022.7
20260906104556 60 238 4.3 5.2 0.00 0.00 0.00 62 1022.8
20260906104033 61 234 3.5 3.5 0.00 0.00 0.00 61 1022.9
20260906103532 61 225 3.5 3.5 0.00 0.00 0.00 61 1023.0
20260906103102 61 231 2.6 4.3 0.00 0.00 0.00 61 1023.0
20260906102533 61 222 3.5 4.3 0.00 0.00 0.00 61 1022.9
20260906102035 61 224 3.5 4.3 0.00 0.00 0.00 59 1022.9
20260906101600 63 228 3.5 4.3 0.00 0.00 0.00 57 1022.8
20260906101034 64 227 4.3 4.3 0.00 0.00 0.00 55 1022.9
20260906100532 64 217 3.5 4.3 0.00 0.00 0.00 54 1023.0
20260906100058 65 204 1.7 4.3 0.00 0.00 0.00 54 1023.2
20260906095540 64 202 1.7 4.3 0.00 0.00 0.00 55 1023.2
20260906095033 64 215 3.5 4.3 0.00 0.00 0.00 56 1023.1
20260906094554 63 196 1.7 6.1 0.00 0.00 0.00 58 1023.1
20260906094034 62 196 2.6 6.1 0.00 0.00 0.00 59 1023.2
20260906093533 62 191 3.5 5.2 0.00 0.00 0.00 60 1023.0
20260906093104 62 229 2.6 4.3 0.00 0.00 0.00 62 1022.9
20260906092532 62 240 3.5 5.2 0.00 0.00 0.00 62 1022.8
20260906092034 62 231 3.5 7.0 0.00 0.00 0.00 62 1022.7
20260906091559 63 233 5.2 7.0 0.00 0.00 0.00 61 1022.7
20260906091033 62 216 6.1 6.1 0.00 0.00 0.00 62 1022.8
20260906090533 62 217 3.5 4.3 0.00 0.00 0.00 63 1022.8
20260906090057 63 217 3.5 4.3 0.00 0.00 0.00 63 1022.8
20260906085533 62 226 2.6 3.5 0.00 0.00 0.00 63 1022.8
20260906085032 62 227 2.6 5.2 0.00 0.00 0.00 64 1022.8
20260906084601 62 221 4.3 5.2 0.00 0.00 0.00 67 1022.8
20260906084033 61 218 4.3 5.2 0.00 0.00 0.00 68 1022.8
20260906083534 62 223 3.5 5.2 0.00 0.00 0.00 68 1022.8
20260906083059 61 234 4.3 5.2 0.00 0.00 0.00 69 1022.8
20260906082532 61 237 4.3 4.3 0.00 0.00 0.00 71 1022.9
20260906082036 62 229 3.5 5.2 0.00 0.00 0.00 71 1023.0
20260906081600 62 236 3.5 5.2 0.00 0.00 0.00 70 1023.0
20260906081033 62 225 4.3 5.2 0.00 0.00 0.00 70 1023.0
20260906080533 62 224 4.3 6.1 0.00 0.00 0.00 71 1023.1
20260906075534 63 210 6.1 7.0 0.00 0.00 0.00 70 1023.1
20260906075033 63 205 5.2 7.0 0.00 0.00 0.00 70 1023.1
20260906074554 63 212 5.2 5.2 0.00 0.00 0.00 68 1023.2
20260906074038 64 201 3.5 4.3 0.00 0.00 0.00 66 1023.1
20260906073533 64 195 3.5 5.2 0.00 0.00 0.00 63 1023.1
20260906073101 65 205 4.3 5.2 0.00 0.00 0.00 60 1023.0
20260906072534 66 203 3.5 4.3 0.00 0.00 0.00 59 1023.1
20260906072033 65 203 3.5 4.3 0.00 0.00 0.00 62 1023.1
20260906071601 63 203 3.5 4.3 0.00 0.00 0.00 64 1023.1
20260906071033 64 174 3.5 4.3 0.00 0.00 0.00 63 1023.0
20260906070534 64 190 1.7 2.6 0.00 0.00 0.00 63 1023.2
20260906070059 65 0 0.0 3.5 0.00 0.00 0.00 61 1023.2
20260906065534 65 190 2.6 6.1 0.00 0.00 0.00 63 1023.3
20260906065034 66 190 4.3 6.1 0.00 0.00 0.00 61 1023.2
20260906064604 67 181 0.9 2.6 0.00 0.00 0.00 56 1023.2
20260906064038 67 217 1.7 3.5 0.00 0.00 0.00 57 1023.1
20260906063533 66 217 2.6 7.0 0.00 0.00 0.00 58 1023.1
20260906063102 66 281 4.3 7.0 0.00 0.00 0.00 57 1023.0
20260906062533 66 277 5.2 7.0 0.00 0.00 0.00 62 1023.0
20260906062033 67 238 3.5 4.3 0.00 0.00 0.00 63 1023.0
20260906061604 67 221 3.5 4.3 0.00 0.00 0.00 63 1023.0
20260906061033 67 200 3.5 4.3 0.00 0.00 0.00 62 1023.0
20260906060533 68 192 3.5 4.3 0.00 0.00 0.00 61 1023.1
20260906060059 68 257 1.7 3.5 0.00 0.00 0.00 60 1023.1
20260906055533 69 257 0.9 3.5 0.00 0.00 0.00 60 1023.1
20260906055032 68 257 2.6 5.2 0.00 0.00 0.00 61 1023.1
20260906054608 68 267 2.6 7.8 0.00 0.00 0.00 61 1023.2
20260906054034 68 263 2.6 7.8 0.00 0.00 0.00 61 1023.2
20260906053534 68 271 5.2 7.8 0.00 0.00 0.00 61 1023.3
20260906053102 68 263 4.3 6.1 0.00 0.00 0.00 60 1023.3
20260906052534 69 281 2.6 5.2 0.00 0.00 0.00 60 1023.3
20260906052033 69 243 2.6 6.1 0.00 0.00 0.00 60 1023.2
20260906051612 69 253 3.5 6.1 0.00 0.00 0.00 60 1023.2
20260906051034 69 254 4.3 7.0 0.00 0.00 0.00 60 1023.2
20260906050533 69 247 3.5 7.0 0.00 0.00 0.00 60 1023.2
20260906050058 69 251 4.3 7.0 0.00 0.00 0.00 60 1023.2
20260906045532 70 257 2.6 7.0 0.00 0.00 0.00 60 1023.4
20260906045036 70 248 4.3 7.8 0.00 0.00 0.00 60 1023.5
20260906044608 70 234 4.3 8.7 0.00 0.00 0.00 61 1023.4
20260906044034 70 267 6.1 8.7 0.00 0.00 0.00 61 1023.4
20260906043533 69 253 3.5 6.1 0.00 0.00 0.00 62 1023.3
20260906043100 69 238 3.5 7.8 0.00 0.00 0.00 62 1023.4
20260906042534 69 249 6.1 7.8 0.00 0.00 0.00 63 1023.3
20260906042033 69 243 5.2 7.0 0.00 0.00 0.00 62 1023.4
20260906041558 69 269 6.1 7.0 0.00 0.00 0.00 62 1023.2
20260906041034 70 248 3.5 8.7 0.00 0.00 0.00 62 1023.2
20260906040533 70 206 6.1 8.7 0.00 0.00 0.00 63 1023.1
20260906040134 70 171 5.2 7.8 0.00 0.00 0.00 62 1023.1
20260906035537 70 138 5.2 9.6 0.00 0.00 0.00 62 1023.2
20260906035035 70 142 7.0 9.6 0.00 0.00 0.00 62 1023.2
20260906034615 70 148 7.8 10.4 0.00 0.00 0.00 62 1023.1
20260906034033 69 152 7.0 10.4 0.00 0.00 0.00 62 1023.1
20260906033532 69 151 7.8 9.6 0.00 0.00 0.00 63 1023.0
20260906033107 68 158 7.8 8.7 0.00 0.00 0.00 64 1023.0
20260906032537 67 143 5.2 7.0 0.00 0.00 0.00 62 1022.9
20260906032033 68 140 6.1 7.8 0.00 0.00 0.00 61 1023.0
20260906031556 68 134 7.0 7.8 0.00 0.00 0.00 59 1023.0
20260906031035 69 138 7.0 7.8 0.00 0.00 0.00 57 1022.9
20260906030533 70 134 6.1 11.3 0.00 0.00 0.00 56 1022.8
20260906030105 71 140 7.8 13.9 0.00 0.00 0.00 55 1022.8
20260906025534 71 133 9.6 13.9 0.00 0.00 0.00 54 1022.7
20260906025033 72 135 10.4 18.2 0.00 0.00 0.00 53 1022.6
20260906024614 72 132 13.0 18.2 0.00 0.00 0.00 53 1022.6
20260906024034 72 154 10.4 13.0 0.00 0.00 0.00 44 1022.4
20260906023533 74 137 3.5 13.0 0.00 0.00 0.00 35 1022.5
20260906023103 75 0 0.0 1.7 0.00 0.00 0.00 34 1022.1
20260906022534 75 61 0.0 1.7 0.00 0.00 0.00 35 1021.9
20260906022034 74 0 0.0 0.0 0.00 0.00 0.00 35 1021.9
20260906021558 74 0 0.0 0.0 0.00 0.00 0.00 35 1021.9
20260906021033 74 0 0.0 0.0 0.00 0.00 0.00 35 1021.8
20260906020533 74 0 0.0 0.0 0.00 0.00 0.00 35 1021.7
20260906020100 75 0 0.0 1.7 0.00 0.00 0.00 35 1021.6
20260906015533 75 0 0.0 1.7 0.00 0.00 0.00 35 1021.7
20260906015033 75 0 0.0 1.7 0.00 0.00 0.00 35 1021.6
20260906014601 76 61 0.9 1.7 0.00 0.00 0.00 35 1021.7
20260906014034 76 79 0.9 5.2 0.00 0.00 0.00 34 1021.7
20260906013533 77 163 0.9 5.2 0.00 0.00 0.00 34 1021.5
20260906013107 77 163 3.5 4.3 0.00 0.00 0.00 33 1021.5
20260906012532 78 175 2.6 4.3 0.00 0.00 0.00 32 1021.5
20260906012033 79 204 1.7 7.0 0.00 0.00 0.00 31 1021.6
20260906011600 79 213 2.6 8.7 0.00 0.00 0.00 30 1021.4
20260906011033 79 188 6.1 8.7 0.00 0.00 0.00 30 1021.6
20260906010535 80 173 5.2 7.8 0.00 0.00 0.00 31 1021.7
20260906010100 80 190 6.1 8.7 0.00 0.00 0.00 31 1021.7
20260906005532 80 177 5.2 9.6 0.00 0.00 0.00 31 1021.8
20260906005033 80 174 6.1 11.3 0.00 0.00 0.00 30 1021.8
20260906004556 81 182 7.0 11.3 0.00 0.00 0.00 31 1021.9
20260906004034 80 183 7.0 9.6 0.00 0.00 0.00 31 1022.0
20260906003535 80 173 7.0 8.7 0.00 0.00 0.00 33 1022.0
20260906003101 79 168 5.2 7.8 0.00 0.00 0.00 33 1022.0
20260906002534 79 167 5.2 6.1 0.00 0.00 0.00 33 1021.9
20260906002033 80 157 3.5 5.2 0.00 0.00 0.00 32 1021.9
20260906001608 80 164 4.3 7.8 0.00 0.00 0.00 31 1021.9
20260906001034 81 167 4.3 7.8 0.00 0.00 0.00 30 1021.9
20260906000532 81 165 5.2 7.8 0.00 0.00 0.00 29 1021.8
20260906000100 82 157 4.3 7.8 0.00 0.00 0.00 29 1021.7
20260905235533 82 167 5.2 7.8 0.00 0.00 0.00 28 1021.7
20260905235034 83 148 3.5 8.7 0.00 0.00 0.00 28 1021.7
20260905234554 83 148 4.3 8.7 0.00 0.00 0.00 27 1021.7
20260905234033 84 157 4.3 10.4 0.00 0.00 0.00 27 1021.6
20260905233532 84 160 7.0 10.4 0.00 0.00 0.00 27 1021.6
20260905233102 84 138 6.1 10.4 0.00 0.00 0.00 27 1021.5
20260905232532 84 146 7.0 11.3 0.00 0.00 0.00 27 1021.4
20260905232033 84 136 7.8 11.3 0.00 0.00 0.00 27 1021.5
20260905231608 83 142 6.1 9.6 0.00 0.00 0.00 29 1021.6
20260905231032 83 140 7.8 10.4 0.00 0.00 0.00 28 1021.6
20260905230533 83 136 8.7 11.3 0.00 0.00 0.00 28 1021.6
20260905230106 83 136 8.7 11.3 0.00 0.00 0.00 29 1021.7
20260905225533 82 136 7.8 11.3 0.00 0.00 0.00 29 1021.6
20260905225033 82 146 9.6 13.0 0.00 0.00 0.00 29 1021.7
20260905224618 82 138 9.6 13.0 0.00 0.00 0.00 29 1021.7
20260905224032 82 130 11.3 13.0 0.00 0.00 0.00 29 1021.7
20260905223534 82 117 7.8 11.3 0.00 0.00 0.00 28 1021.7
20260905223116 82 126 7.8 12.2 0.00 0.00 0.00 28 1021.7
20260905222532 83 115 7.8 12.2 0.00 0.00 0.00 28 1021.6
20260905222034 84 120 9.6 13.9 0.00 0.00 0.00 28 1021.6
20260905221604 84 93 8.7 13.9 0.00 0.00 0.00 27 1021.6
20260905221032 84 135 9.6 13.9 0.00 0.00 0.00 28 1021.6
20260905220534 85 111 3.5 10.4 0.00 0.00 0.00 27 1021.6
20260905220059 85 123 6.1 9.6 0.00 0.00 0.00 25 1021.7
20260905215533 85 110 7.0 9.6 0.00 0.00 0.00 26 1021.7
20260905215032 85 120 4.3 9.6 0.00 0.00 0.00 25 1021.7
20260905214558 84 117 6.1 9.6 0.00 0.00 0.00 26 1021.8
20260905214033 84 119 6.1 11.3 0.00 0.00 0.00 26 1021.9
20260905213533 83 115 6.1 11.3 0.00 0.00 0.00 27 1021.9